EWG144 YPMQ-YCFS

Flight info

Callsign EWG144
Flight time 0h 19m
Altitude 11000
Route 305134S1530027E/N0352F100 DCT CFS
Aircraft A320/M-SDE3FGHIRWY/LB1

Departure

Time 2026-04-20 15:27
Airport Port Macquarie Airport (YPMQ)

Arrival

Time 2026-04-20 15:47
Airport Coffs Harbour Airport (YCFS)
Time Latitude Longitude Altitude Speed Heading
2026-04-20 15:07 -31.43064 152.86727 26 ft 0 kts 251°
2026-04-20 15:24 -31.43065 152.86726 22 ft 1 kts 251°
2026-04-20 15:24 -31.43063 152.86695 23 ft 7 kts 278°
2026-04-20 15:25 -31.43036 152.86616 22 ft 13 kts 300°
2026-04-20 15:25 -31.42962 152.86608 22 ft 11 kts 31°
2026-04-20 15:25 -31.42907 152.86656 23 ft 7 kts
2026-04-20 15:25 -31.42914 152.86637 25 ft 3 kts 205°
2026-04-20 15:26 -31.42920 152.86633 23 ft 0 kts 210°
2026-04-20 15:26 -31.42924 152.86631 23 ft 4 kts 211°
2026-04-20 15:27 -31.43153 152.86478 20 ft 78 kts 209°
2026-04-20 15:27 -31.43811 152.86036 27 ft 137 kts 212°
2026-04-20 15:27 -31.44709 152.85392 365 ft 158 kts 211°
2026-04-20 15:27 -31.45673 152.84742 1028 ft 155 kts 210°
2026-04-20 15:28 -31.46586 152.84129 1732 ft 154 kts 213°
2026-04-20 15:28 -31.47269 152.83066 2025 ft 182 kts 249°
2026-04-20 15:28 -31.47165 152.81489 2224 ft 215 kts 292°
2026-04-20 15:28 -31.46023 152.80208 2447 ft 247 kts 334°
2026-04-20 15:29 -31.44243 152.79942 2716 ft 275 kts
2026-04-20 15:29 -31.42344 152.80490 3459 ft 285 kts 20°
2026-04-20 15:29 -31.40479 152.81309 4408 ft 286 kts 23°
2026-04-20 15:29 -31.38632 152.82168 5435 ft 285 kts 24°
2026-04-20 15:30 -31.36780 152.82989 6459 ft 283 kts 22°
2026-04-20 15:30 -31.34930 152.83747 7439 ft 280 kts 21°
2026-04-20 15:30 -31.33087 152.84443 8439 ft 275 kts 19°
2026-04-20 15:30 -31.31277 152.85092 9465 ft 269 kts 19°
2026-04-20 15:31 -31.29506 152.85711 10430 ft 265 kts 19°
2026-04-20 15:31 -31.27696 152.86339 10932 ft 279 kts 19°
2026-04-20 15:31 -31.25760 152.87011 11186 ft 303 kts 19°
2026-04-20 15:31 -31.23658 152.87745 11267 ft 330 kts 18°
2026-04-20 15:32 -31.21352 152.88549 11278 ft 360 kts 18°
2026-04-20 15:32 -31.18851 152.89419 11273 ft 388 kts 18°
2026-04-20 15:32 -31.16174 152.90342 11274 ft 413 kts 18°
2026-04-20 15:32 -31.13376 152.91300 11222 ft 422 kts 18°
2026-04-20 15:33 -31.10610 152.92246 10967 ft 406 kts 18°
2026-04-20 15:33 -31.07957 152.93158 10727 ft 385 kts 18°
2026-04-20 15:33 -31.05483 152.94006 10495 ft 357 kts 18°
2026-04-20 15:33 -31.03209 152.94785 10257 ft 334 kts 18°
2026-04-20 15:34 -31.01048 152.95527 10003 ft 315 kts 18°
2026-04-20 15:34 -30.98971 152.96246 9847 ft 310 kts 19°
2026-04-20 15:34 -30.96915 152.96963 9715 ft 308 kts 19°
2026-04-20 15:34 -30.94865 152.97678 9582 ft 307 kts 18°
2026-04-20 15:35 -30.92819 152.98388 9453 ft 306 kts 18°
2026-04-20 15:35 -30.90770 152.99097 9322 ft 306 kts 18°
2026-04-20 15:35 -30.88726 152.99800 9193 ft 306 kts 18°
2026-04-20 15:35 -30.86686 153.00501 9033 ft 306 kts 18°
2026-04-20 15:36 -30.84651 153.01201 8767 ft 304 kts 18°
2026-04-20 15:36 -30.82627 153.01899 8516 ft 303 kts 18°
2026-04-20 15:36 -30.80607 153.02597 8262 ft 302 kts 18°
2026-04-20 15:36 -30.78595 153.03292 8012 ft 301 kts 18°
2026-04-20 15:37 -30.76584 153.03987 7761 ft 300 kts 19°
2026-04-20 15:37 -30.74586 153.04679 7517 ft 299 kts 18°
2026-04-20 15:37 -30.72592 153.05369 7272 ft 298 kts 19°
2026-04-20 15:37 -30.70603 153.06058 7033 ft 298 kts 19°
2026-04-20 15:38 -30.68614 153.06745 6781 ft 298 kts 19°
2026-04-20 15:38 -30.66660 153.07417 6547 ft 296 kts 19°
2026-04-20 15:38 -30.64643 153.08109 6021 ft 301 kts 18°
2026-04-20 15:38 -30.62664 153.08786 5580 ft 300 kts 18°
2026-04-20 15:39 -30.60672 153.09470 5154 ft 295 kts 18°
2026-04-20 15:39 -30.58747 153.10133 4743 ft 282 kts 18°
2026-04-20 15:39 -30.56906 153.10765 4356 ft 270 kts 18°
2026-04-20 15:39 -30.55143 153.11372 3995 ft 259 kts 17°
2026-04-20 15:40 -30.53437 153.11960 3629 ft 252 kts 17°
2026-04-20 15:40 -30.51781 153.12530 3282 ft 246 kts 17°
2026-04-20 15:40 -30.50150 153.13092 2948 ft 244 kts 15°
2026-04-20 15:40 -30.48505 153.13660 2596 ft 248 kts 17°
2026-04-20 15:41 -30.46839 153.14233 2246 ft 251 kts 16°
2026-04-20 15:41 -30.45168 153.14806 1882 ft 247 kts 16°
2026-04-20 15:41 -30.43542 153.15367 1539 ft 240 kts 14°
2026-04-20 15:41 -30.42000 153.15896 1458 ft 220 kts 15°
2026-04-20 15:42 -30.40571 153.16385 1502 ft 210 kts 14°
2026-04-20 15:42 -30.39198 153.16855 1509 ft 204 kts 14°
2026-04-20 15:42 -30.37831 153.17324 1502 ft 204 kts 15°
2026-04-20 15:42 -30.36464 153.17791 1498 ft 206 kts 16°
2026-04-20 15:43 -30.35086 153.18261 1469 ft 207 kts 16°
2026-04-20 15:43 -30.33717 153.18730 1340 ft 204 kts 15°
2026-04-20 15:43 -30.32363 153.19193 1213 ft 198 kts 15°
2026-04-20 15:43 -30.31099 153.19627 1102 ft 181 kts 14°
2026-04-20 15:44 -30.29920 153.20010 988 ft 172 kts
2026-04-20 15:44 -30.28844 153.19766 892 ft 148 kts 314°
2026-04-20 15:44 -30.28263 153.18909 896 ft 128 kts 277°
2026-04-20 15:44 -30.28213 153.17938 894 ft 118 kts 249°
2026-04-20 15:45 -30.28588 153.17128 893 ft 117 kts 227°
2026-04-20 15:45 -30.29097 153.16375 894 ft 121 kts 229°
2026-04-20 15:45 -30.29603 153.15616 846 ft 120 kts 229°
2026-04-20 15:45 -30.30104 153.14872 692 ft 117 kts 231°
2026-04-20 15:46 -30.30598 153.14129 517 ft 118 kts 229°
2026-04-20 15:46 -30.31175 153.13393 365 ft 128 kts 226°
2026-04-20 15:46 -30.31818 153.12665 223 ft 127 kts 226°
2026-04-20 15:46 -30.32493 153.11988 47 ft 131 kts 222°
2026-04-20 15:47 -30.33112 153.11371 22 ft 91 kts 221°
2026-04-20 15:47 -30.33303 153.11149 22 ft 11 kts 284°
2026-04-20 15:47 -30.33249 153.11070 21 ft 14 kts 314°
2026-04-20 15:47 -30.33167 153.11075 21 ft 13 kts 41°
2026-04-20 15:48 -30.33103 153.11139 23 ft 11 kts 41°
2026-04-20 15:48 -30.33029 153.11215 21 ft 20 kts 41°
2026-04-20 15:48 -30.32962 153.11281 24 ft 19 kts 40°
2026-04-20 15:48 -30.32867 153.11375 21 ft 17 kts 40°
2026-04-20 15:49 -30.32780 153.11462 22 ft 16 kts 40°
2026-04-20 15:49 -30.32672 153.11570 23 ft 24 kts 41°
2026-04-20 15:49 -30.32552 153.11688 23 ft 22 kts 40°
2026-04-20 15:49 -30.32442 153.11767 23 ft 15 kts 356°
2026-04-20 15:50 -30.32362 153.11680 22 ft 17 kts 302°
2026-04-20 15:50 -30.32315 153.11635 22 ft 1 kts 344°
2026-04-20 15:50 -30.32313 153.11634 22 ft 0 kts 342°
2026-04-20 15:50 -30.32308 153.11632 22 ft 0 kts 342°